[[{"header":{"parameterUnit":"m.s-1","parameterCategory":2,"la1":30.2991,"la2":30.254,"lo1":-89.0895,"lo2":-89.0444,"dy":0.0017,"dx":0.0017,"nx":28,"ny":28,"refTime":"2025-08-23T09:00:00:Z","depth":"0","parameterNumber":2,"parameterNumberName":"U-component_of_CURRENTS"},"data":[0,0,0,0,0,0,0,0,0,0,0,0,0,0,0,0,0,0,0,0,0,0,0,0,0,0,0,0,0,0,0,0,0,0,0,0,0,0,0,0,0,0,0,0,0,0,0,0,0,0,0,0,0,0,0,0,0,0,0.2402,0.2402,0,0.2398,0.2397,0.2397,0.2373,0.2373,0.2373,0.2373,0.242,0.2422,0.2423,0,0,0,0,0,0,0,0,0,0,0,0,0,0.2399,0.2399,0.2402,0.2402,0.2402,0.2398,0.2397,0.2397,0.2373,0.2373,0.2373,0.2372,0.242,0.2421,0.2423,0,0,0,0,0,0,0,0,0,0,0,0,0,0.2395,0.2399,0.2402,0.2392,0.2391,0.2398,0.2397,0.2397,0.2374,0.2373,0.2373,0.2372,0.2419,0.2421,0.2423,0.2446,0,0,0.243,0.2431,0,0,0,0,0,0,0,0,0.2396,0.2395,0.2393,0.2393,0.2392,0.2388,0.2414,0.2417,0.2374,0.2377,0.2373,0.2372,0.2417,0.2419,0.2414,0.2449,0.2451,0.2431,0.2432,0.2433,0.2434,0,0,0,0,0,0,0,0.2396,0.2395,0.2397,0.2394,0.2393,0.2392,0.239,0.2414,0.2398,0.2377,0.2376,0.238,0.2416,0.2412,0.2415,0.2451,0.2431,0.2433,0.2434,0.2435,0.2606,0.2609,0,0,0,0,0,0,0.2402,0.2395,0.2397,0.2397,0.2396,0.2392,0.2391,0.2387,0.2397,0.2398,0.2381,0.2379,0.2408,0.2413,0.2417,0.2484,0.2433,0.2435,0.2437,0.2603,0.2607,0.2611,0,0,0,0,0,0,0.2402,0.2402,0.2397,0.2399,0.2399,0.2393,0.239,0.2388,0.2387,0.24,0.2401,0.2383,0.2408,0.2414,0.2456,0.2485,0.2436,0.2438,0.26,0.2604,0.2609,0.2594,0,0,0,0,0,0,0.2402,0.2402,0.2401,0.2399,0.2399,0.2417,0.239,0.2388,0.2392,0.239,0.2402,0.2406,0.2408,0.2453,0.2459,0.2487,0.244,0.2595,0.2602,0.2607,0.2591,0.2598,0.2604,0,0,0,0,0,0.2402,0.2401,0.2401,0.2401,0.2398,0.2419,0.2419,0.2411,0.2392,0.2405,0.2415,0.2405,0.2496,0.2457,0.2463,0.2492,0.2593,0.26,0.2607,0.2588,0.2597,0.2604,0,0,0,0,0,0,0.2392,0.2399,0.2399,0.2397,0.2417,0.2416,0.2419,0.2416,0.2429,0.2427,0.2429,0.2435,0.2483,0.2506,0.2462,0.2569,0.255,0.2559,0.2534,0.2543,0.2549,0.2543,0.2442,0,0,0,0,0,0.2393,0.2396,0.241,0.2411,0.242,0.2421,0.2425,0.2428,0.244,0.2443,0.2452,0.2483,0.2518,0.2542,0.2572,0.2624,0.2639,0.266,0.2666,0.2671,0.2678,0.2721,0.273,0.2634,0.2634,0.2634,0,0,0.2387,0.2393,0.2393,0.2411,0.2416,0.2443,0.2421,0.2438,0.2466,0.245,0.2483,0.2496,0.2537,0.259,0.2617,0.2611,0.2711,0.268,0.2683,0.2687,0.2729,0.2738,0.2746,0.2639,0.2638,0.2637,0,0,0.2383,0.2386,0.2391,0.2417,0.2442,0.2456,0.2465,0.2478,0.2489,0.2528,0.2528,0.2559,0.2611,0.2642,0.2666,0.2739,0.2736,0.2763,0.2793,0.2834,0.2841,0.2847,0.2876,0.2885,0.2774,0.2775,0.2775,0,0.2378,0.2386,0.2398,0.2423,0.2447,0.2465,0.2492,0.2517,0.2545,0.2558,0.2548,0.2614,0.2638,0.2703,0.273,0.2748,0.2768,0.2742,0.2837,0.2843,0.285,0.2878,0.2887,0.2775,0.2775,0.2775,0.2775,0,0.2386,0.2403,0.2411,0.2451,0.2484,0.2511,0.2558,0.259,0.26,0.2611,0.2661,0.2687,0.2724,0.2749,0.2758,0.283,0.2827,0.2823,0.2797,0.2857,0.2885,0.2895,0.2775,0.2775,0.2775,0.2775,0,0,0.2349,0.2403,0.2407,0.2433,0.2502,0.2527,0.2595,0.2645,0.2672,0.2703,0.2731,0.2791,0.2778,0.281,0.2827,0.2871,0.2926,0.287,0.2873,0.2866,0.3013,0.3001,0.3011,0.293,0.2932,0.2934,0.3011,0,0.2351,0.2388,0.2426,0.2482,0.2509,0.2571,0.2632,0.2687,0.2717,0.2753,0.2786,0.2817,0.2814,0.2825,0.2869,0.2912,0.2955,0.2906,0.2986,0.2989,0.2943,0.3023,0.2909,0.2967,0.3021,0.3022,0.3023,0,0.2354,0.2376,0.2416,0.2496,0.2514,0.2558,0.2645,0.2704,0.2774,0.2794,0.2826,0.2837,0.2906,0.2889,0.2988,0.2956,0.2989,0.3019,0.3022,0.3023,0.2997,0.2923,0.2984,0.2909,0.3039,0.3038,0.3037,0,0.2318,0.2381,0.2405,0.2433,0.2523,0.2558,0.2617,0.2699,0.2755,0.2812,0.2845,0.2894,0.2941,0.2987,0.305,0.3021,0.3156,0.3119,0.3141,0.3139,0.3066,0.3055,0.3035,0.3193,0.3193,0.3192,0.3192,0,0.2314,0.2336,0.2384,0.2399,0.2447,0.2528,0.2591,0.2655,0.2748,0.2807,0.2854,0.2908,0.2972,0.3048,0.3076,0.3154,0.3179,0.3165,0.3169,0.3061,0.305,0.3,0.2968,0.3195,0.3195,0.3194,0.3194,0,0.2279,0.2308,0.2337,0.2404,0.2428,0.2464,0.2585,0.2634,0.273,0.2814,0.2839,0.2947,0.3043,0.3111,0.3203,0.3204,0.3177,0.3282,0.3147,0.3135,0.3051,0.3022,0.292,0.2839,0.3298,0.3298,0.3298,0,0.2259,0.2267,0.2319,0.2335,0.2361,0.2428,0.2485,0.2604,0.2666,0.2833,0.2871,0.2998,0.306,0.3201,0.3237,0.3295,0.3201,0.3219,0.3143,0.3052,0.3024,0.289,0.2818,0.3039,0.3037,0.3036,0.3034,0,0.2215,0.223,0.2249,0.2285,0.2325,0.2383,0.247,0.2519,0.2668,0.2742,0.2844,0.2907,0.3071,0.3083,0.3194,0.3209,0.3055,0.3189,0.3128,0.286,0.2678,0.2599,0.2978,0.3021,0.3022,0.3023,0.3024,0.3024,0.2169,0.2168,0.2192,0.2227,0.2272,0.2315,0.2329,0.2429,0.2506,0.2595,0.2729,0.2775,0.2909,0.3039,0.305,0.301,0.2984,0.2918,0.2904,0.2786,0.2661,0.3015,0.3044,0.3045,0.3046,0.3047,0.3048,0,0.2098,0.2109,0.214,0.2162,0.2177,0.223,0.2299,0.2289,0.2318,0.244,0.25,0.2584,0.2648,0.275,0.281,0.2727,0.2592,0.2663,0.2437,0.2392,0.2744,0.2687,0.2598,0.2598,0.2598,0.2598,0.2598,0.2598,0.2053,0.2042,0.2063,0.2052,0.2068,0.2041,0.2043,0.204,0.2093,0.2111,0.2146,0.223,0.2451,0.2598,0.2564,0.2504,0.2303,0.2214,0.2215,0.2465,0.2486,0.2506,0.2443,0.2305,0.2304,0.1742,0.1738,0.1734]},{"header":{"parameterUnit":"m.s-1","parameterCategory":2,"la1":30.2991,"la2":30.254,"lo1":-89.0895,"lo2":-89.0444,"dy":0.0017,"dx":0.0017,"nx":28,"ny":28,"refTime":"2025-08-23T09:00:00:Z","depth":"0","parameterNumber":3,"parameterNumberName":"V-component_of_CURRENTS"},"data":[0,0,0,0,0,0,0,0,0,0,0,0,0,0,0,0,0,0,0,0,0,0,0,0,0,0,0,0,0,0,0,0,0,0,0,0,0,0,0,0,0,0,0,0,0,0,0,0,0,0,0,0,0,0,0,0,0,0,0.0167,0.0166,0,0.0129,0.0128,0.0128,0.0096,0.0096,0.0095,0.0095,0.0048,0.0047,0.0046,0,0,0,0,0,0,0,0,0,0,0,0,0,0.0169,0.0169,0.0167,0.0166,0.0166,0.0129,0.0128,0.0128,0.0096,0.0096,0.0095,0.0095,0.0048,0.0047,0.0046,0,0,0,0,0,0,0,0,0,0,0,0,0,0.0153,0.0169,0.0167,0.0146,0.0144,0.0129,0.0128,0.0128,0.0096,0.0096,0.0095,0.0095,0.0049,0.0047,0.0046,0.0045,0,0,0.0041,0.0041,0,0,0,0,0,0,0,0,0.0154,0.0153,0.0149,0.0147,0.0145,0.0117,0.0112,0.01,0.0096,0.0113,0.0095,0.0094,0.0071,0.0068,0.0061,0.0043,0.0041,0.0041,0.004,0.004,0.0039,0,0,0,0,0,0,0,0.0155,0.0154,0.0151,0.0149,0.0146,0.0124,0.0122,0.0109,0.0094,0.0112,0.011,0.0107,0.007,0.0062,0.0059,0.004,0.0041,0.004,0.0039,0.0038,0.0035,0.0036,0,0,0,0,0,0,0.0164,0.0155,0.0152,0.015,0.0149,0.0125,0.0122,0.0126,0.0095,0.009,0.0107,0.0105,0.0065,0.0061,0.0058,0.0072,0.004,0.0038,0.0037,0.0034,0.0035,0.0036,0,0,0,0,0,0,0.0164,0.0164,0.0154,0.0152,0.0149,0.0126,0.013,0.0126,0.0119,0.0091,0.0086,0.0105,0.0064,0.006,0.0061,0.0069,0.0038,0.0036,0.0034,0.0035,0.0036,0.009,0,0,0,0,0,0,0.0165,0.0165,0.017,0.0153,0.0149,0.0153,0.013,0.0125,0.0118,0.0115,0.0088,0.0083,0.0064,0.0063,0.0059,0.0067,0.0035,0.0033,0.0034,0.0035,0.0088,0.0093,0.0098,0,0,0,0,0,0.0165,0.0178,0.017,0.017,0.0157,0.0153,0.015,0.0131,0.0119,0.0122,0.0109,0.0084,0.0069,0.0063,0.0058,0.0065,0.0032,0.0034,0.0035,0.0085,0.0092,0.0098,0,0,0,0,0,0,0.0188,0.0176,0.0167,0.0177,0.0168,0.0148,0.0149,0.0135,0.0127,0.0125,0.0097,0.0092,0.0093,0.0076,0.0069,0.007,0.0045,0.0046,0.0085,0.0091,0.0096,0.0107,0.0034,0,0,0,0,0,0.0195,0.0197,0.0184,0.0192,0.019,0.017,0.0165,0.0154,0.0144,0.0139,0.0119,0.0104,0.0096,0.0092,0.0079,0.0083,0.0062,0.0084,0.009,0.0094,0.01,0.0086,0.0091,0.0042,0.0042,0.0042,0,0,0.0205,0.0199,0.02,0.0196,0.0187,0.0194,0.0166,0.0166,0.0175,0.0136,0.0142,0.012,0.0101,0.0105,0.0103,0.0093,0.0096,0.0096,0.0101,0.0104,0.0089,0.0093,0.0097,0.0043,0.0043,0.0043,0,0,0.0232,0.0224,0.0236,0.0233,0.0225,0.0213,0.0216,0.02,0.0197,0.02,0.0176,0.0167,0.0149,0.0141,0.0134,0.0163,0.0123,0.0153,0.019,0.0177,0.0181,0.0184,0.016,0.016,0.0158,0.0159,0.0159,0,0.0247,0.026,0.024,0.0252,0.0254,0.0226,0.0244,0.024,0.0226,0.0232,0.021,0.019,0.0168,0.0181,0.0187,0.0175,0.0155,0.0167,0.0184,0.0187,0.0189,0.0163,0.0163,0.0161,0.0161,0.0161,0.016,0,0.0281,0.0293,0.0302,0.0306,0.0305,0.0316,0.0307,0.0313,0.0298,0.0288,0.0291,0.026,0.0249,0.0238,0.0219,0.0228,0.0204,0.019,0.0168,0.0197,0.0168,0.0167,0.0165,0.0164,0.0164,0.0163,0,0,0.0311,0.0325,0.0327,0.0341,0.0336,0.0341,0.0362,0.0373,0.0394,0.0368,0.0389,0.036,0.0332,0.0323,0.0294,0.0281,0.0271,0.0244,0.0241,0.022,0.0233,0.0218,0.0215,0.0257,0.0258,0.0258,0.0204,0,0.0346,0.0385,0.0377,0.0412,0.0431,0.0418,0.0443,0.0447,0.0441,0.0454,0.0424,0.0423,0.0369,0.0364,0.0341,0.0296,0.0272,0.0287,0.0207,0.0205,0.0189,0.0215,0.0205,0.0158,0.0203,0.0203,0.0202,0,0.0379,0.0401,0.0444,0.0474,0.0482,0.0495,0.0526,0.0544,0.0555,0.0553,0.0539,0.0507,0.0488,0.0434,0.0364,0.0375,0.0306,0.0261,0.0258,0.0226,0.0189,0.0136,0.0153,0.0034,0.02,0.02,0.0201,0,0.0407,0.0446,0.0482,0.0491,0.052,0.0541,0.0555,0.0572,0.0606,0.0611,0.0633,0.0588,0.0581,0.0494,0.0396,0.0378,0.0316,0.028,0.0198,0.0195,0.0163,0.0158,0.0057,0.0221,0.0221,0.0221,0.0221,0,0.0443,0.0472,0.05,0.052,0.0571,0.0574,0.0627,0.0643,0.0677,0.0733,0.0681,0.0714,0.0596,0.0547,0.0431,0.0322,0.034,0.021,0.0187,0.0181,0.0179,0.0053,-0.0012,0.0219,0.022,0.022,0.022,0,0.0465,0.0484,0.0529,0.0569,0.0585,0.0618,0.0675,0.0721,0.0747,0.0821,0.083,0.0813,0.0754,0.063,0.0501,0.0384,0.0198,0.0219,0.0217,0.0195,-0.0001,-0.0062,-0.0184,-0.0232,0.0115,0.0115,0.0114,0,0.048,0.0506,0.0561,0.0593,0.0611,0.0662,0.0709,0.0749,0.0808,0.0891,0.0939,0.091,0.0914,0.0719,0.0505,0.0307,0.0188,0.0154,0.0115,-0.0006,-0.0092,-0.0135,-0.0169,0.0086,0.0085,0.0084,0.0084,0,0.0506,0.0524,0.0562,0.0633,0.0682,0.075,0.0821,0.0886,0.096,0.1036,0.1131,0.1142,0.0964,0.0771,0.0496,0.0345,0.007,0.0136,0.0013,-0.0118,-0.0173,-0.0231,0.0105,0.0079,0.008,0.008,0.008,0.008,0.0522,0.0556,0.0611,0.068,0.0744,0.0845,0.0923,0.1017,0.1138,0.1277,0.1268,0.1312,0.1016,0.0646,0.0421,0.0016,0.0029,-0.0112,-0.0176,-0.0208,-0.0255,0.0071,0.0021,0.0021,0.0021,0.0021,0.0021,0,0.0548,0.0596,0.0659,0.0753,0.0841,0.0869,0.101,0.1106,0.127,0.137,0.1451,0.1331,0.0957,0.0577,0.0035,-0.0244,-0.0343,-0.0392,-0.0466,-0.0485,-0.0198,-0.0199,-0.0301,-0.0301,-0.03,-0.03,-0.03,-0.03,0.0564,0.0634,0.0676,0.0824,0.0898,0.1035,0.113,0.1271,0.1374,0.1509,0.1534,0.1527,0.125,0.0268,-0.0376,-0.052,-0.0704,-0.0755,-0.0827,-0.065,-0.0629,-0.0609,-0.0625,-0.0814,-0.0815,-0.1082,-0.1085,-0.1088]}],[{"header":{"parameterUnit":"m.s-1","parameterCategory":2,"la1":30.2991,"la2":30.254,"lo1":-89.0895,"lo2":-89.0444,"dy":0.0017,"dx":0.0017,"nx":28,"ny":28,"refTime":"2025-08-23T09:00:00:Z","depth":"2","parameterNumber":2,"parameterNumberName":"U-component_of_CURRENTS"},"data":[0,0,0,0,0,0,0,0,0,0,0,0,0,0,0,0,0,0,0,0,0,0,0,0,0,0,0,0,0,0,0,0,0,0,0,0,0,0,0,0,0,0,0,0,0,0,0,0,0,0,0,0,0,0,0,0,0,0,0.1906,0.1906,0,0.1926,0.1927,0.1927,0.1945,0.1946,0.1946,0.1946,0.1935,0.1935,0.1934,0,0,0,0,0,0,0,0,0,0,0,0,0,0.1871,0.1872,0.1906,0.1906,0.1906,0.1926,0.1927,0.1927,0.1945,0.1946,0.1946,0.1946,0.1935,0.1935,0.1934,0,0,0,0,0,0,0,0,0,0,0,0,0,0.1888,0.1872,0.1906,0.1918,0.1919,0.1926,0.1927,0.1927,0.1945,0.1946,0.1946,0.1946,0.1936,0.1935,0.1934,0.1923,0,0,0.1932,0.1932,0,0,0,0,0,0,0,0,0.1887,0.189,0.1916,0.1917,0.1919,0.1934,0.191,0.1924,0.1945,0.1935,0.1946,0.1946,0.1932,0.1931,0.1935,0.1922,0.1922,0.1932,0.1931,0.1931,0.1931,0,0,0,0,0,0,0,0.1886,0.1889,0.1914,0.1916,0.1918,0.1919,0.1922,0.1913,0.1931,0.1936,0.1938,0.194,0.1932,0.1935,0.1934,0.1922,0.1932,0.1931,0.1931,0.193,0.2036,0.2039,0,0,0,0,0,0,0.1884,0.1888,0.1913,0.1915,0.1904,0.1919,0.1922,0.1929,0.1932,0.1933,0.194,0.1941,0.1937,0.1935,0.1934,0.1977,0.1931,0.193,0.193,0.2033,0.2037,0.204,0,0,0,0,0,0,0.1883,0.1886,0.1912,0.1901,0.1905,0.1919,0.1926,0.1929,0.1938,0.1934,0.1935,0.1947,0.1937,0.1935,0.1934,0.1974,0.193,0.1929,0.2029,0.2034,0.2039,0.2026,0,0,0,0,0,0,0.1882,0.1886,0.1893,0.1901,0.1905,0.1926,0.1926,0.1929,0.1939,0.1941,0.1941,0.194,0.1937,0.1935,0.1934,0.1973,0.1929,0.2025,0.2031,0.2037,0.2022,0.203,0.2036,0,0,0,0,0,0.1881,0.1885,0.1893,0.1896,0.1913,0.1927,0.1929,0.194,0.1939,0.1949,0.1946,0.194,0.1976,0.1935,0.1933,0.1973,0.2022,0.2029,0.2037,0.2019,0.2028,0.2036,0,0,0,0,0,0,0.1874,0.1887,0.1897,0.1905,0.1921,0.193,0.1939,0.1942,0.1947,0.1954,0.1941,0.194,0.1976,0.1978,0.1934,0.2034,0.2015,0.2022,0.2003,0.2012,0.2019,0.202,0.1928,0,0,0,0,0,0.1875,0.188,0.1899,0.1906,0.1917,0.1929,0.1935,0.1949,0.1953,0.1957,0.1955,0.1977,0.2006,0.2005,0.2035,0.2047,0.2053,0.2092,0.2099,0.2104,0.2113,0.2138,0.2146,0.2064,0.2064,0.2064,0,0,0.1876,0.1881,0.1887,0.1904,0.1918,0.194,0.1934,0.1956,0.1973,0.1953,0.1973,0.1996,0.2021,0.2058,0.2076,0.2055,0.2136,0.2114,0.2117,0.2123,0.2147,0.2154,0.216,0.2069,0.2068,0.2068,0,0,0.1873,0.1887,0.1893,0.1906,0.1931,0.1951,0.1958,0.198,0.1992,0.2008,0.2024,0.2052,0.2079,0.2104,0.2119,0.2181,0.2181,0.2223,0.2233,0.2257,0.2263,0.2267,0.2282,0.2288,0.2212,0.2212,0.2212,0,0.1875,0.188,0.1898,0.1906,0.1921,0.1956,0.1976,0.1996,0.2014,0.2026,0.2024,0.2098,0.2103,0.2153,0.2186,0.2191,0.2208,0.2181,0.226,0.2265,0.227,0.2284,0.2291,0.2212,0.2212,0.2212,0.2212,0,0.1872,0.1884,0.1889,0.1918,0.1943,0.1964,0.2003,0.2034,0.2056,0.2072,0.213,0.2144,0.2187,0.2212,0.2206,0.2271,0.2273,0.2266,0.2218,0.2276,0.2289,0.2296,0.2213,0.2213,0.2213,0.2212,0,0,0.1854,0.1883,0.1884,0.1903,0.195,0.1975,0.2021,0.2068,0.2099,0.2133,0.2161,0.2221,0.224,0.2264,0.228,0.2294,0.233,0.2295,0.2297,0.2276,0.2387,0.2355,0.236,0.2333,0.2335,0.2336,0.2378,0,0.1847,0.1863,0.1884,0.1923,0.1945,0.1996,0.2035,0.2087,0.2127,0.2164,0.2199,0.2244,0.2258,0.2283,0.2305,0.2337,0.2351,0.2319,0.2366,0.2368,0.2303,0.2368,0.2194,0.2215,0.2385,0.2386,0.2387,0,0.1837,0.1846,0.1874,0.1932,0.1949,0.1981,0.2065,0.2116,0.218,0.2204,0.2258,0.2281,0.2335,0.2323,0.2399,0.2383,0.2392,0.24,0.2402,0.2382,0.235,0.2192,0.2222,0.2399,0.2398,0.2397,0.2396,0,0.1813,0.1847,0.1871,0.1884,0.1953,0.1981,0.2044,0.2122,0.2177,0.224,0.2282,0.2331,0.2385,0.2404,0.2446,0.2424,0.2512,0.2474,0.2453,0.245,0.2317,0.2301,0.2513,0.2513,0.2513,0.2513,0.2513,0,0.1794,0.1815,0.1857,0.1864,0.1911,0.1979,0.2051,0.2111,0.2198,0.2261,0.2316,0.2366,0.2413,0.2466,0.2464,0.2502,0.2534,0.2473,0.2467,0.2312,0.2295,0.2467,0.2461,0.2514,0.2514,0.2514,0.2513,0,0.177,0.1796,0.1823,0.1875,0.1898,0.1945,0.2062,0.2126,0.2216,0.2299,0.2324,0.2421,0.2494,0.2534,0.2572,0.2549,0.2557,0.2555,0.2371,0.2343,0.2465,0.2458,0.2517,0.2516,0.2516,0.2515,0.2515,0,0.1754,0.1764,0.1816,0.1836,0.1856,0.1934,0.2002,0.2119,0.2177,0.2324,0.2351,0.2461,0.2494,0.257,0.2547,0.2541,0.2583,0.2373,0.2292,0.2481,0.2469,0.2464,0.2458,0.2108,0.2105,0.2102,0.2099,0,0.1724,0.1748,0.1764,0.1794,0.1851,0.1918,0.2002,0.2057,0.2198,0.2245,0.2315,0.2353,0.2456,0.2378,0.2412,0.2376,0.2354,0.2312,0.2567,0.2141,0.2101,0.2088,0.2095,0.2073,0.2076,0.2077,0.2079,0.208,0.1693,0.1695,0.1716,0.1746,0.1811,0.187,0.1893,0.1969,0.2033,0.2081,0.2194,0.2191,0.2233,0.2182,0.2129,0.2102,0.2241,0.2129,0.2136,0.2146,0.2099,0.2061,0.2015,0.2017,0.2019,0.2021,0.2022,0,0.1623,0.1643,0.1672,0.1691,0.1718,0.1784,0.1863,0.185,0.1855,0.1937,0.1949,0.1825,0.1805,0.1859,0.1777,0.1778,0.1731,0.171,0.1631,0.1661,0.1687,0.1612,0.1401,0.1399,0.1397,0.1395,0,0,0.1581,0.158,0.1598,0.1593,0.1609,0.1609,0.1634,0.1612,0.163,0.1597,0.1581,0.1716,0.1803,0.1568,0.1556,0.1465,0.1542,0.1412,0.1918,0.1856,0.1878,0.1948,0.187,0,0,0,0,0]},{"header":{"parameterUnit":"m.s-1","parameterCategory":2,"la1":30.2991,"la2":30.254,"lo1":-89.0895,"lo2":-89.0444,"dy":0.0017,"dx":0.0017,"nx":28,"ny":28,"refTime":"2025-08-23T09:00:00:Z","depth":"2","parameterNumber":3,"parameterNumberName":"V-component_of_CURRENTS"},"data":[0,0,0,0,0,0,0,0,0,0,0,0,0,0,0,0,0,0,0,0,0,0,0,0,0,0,0,0,0,0,0,0,0,0,0,0,0,0,0,0,0,0,0,0,0,0,0,0,0,0,0,0,0,0,0,0,0,0,0.0054,0.0053,0,0.0022,0.0022,0.0022,0.0001,0.0001,0.0001,0.0001,-0.0052,-0.0054,-0.0055,0,0,0,0,0,0,0,0,0,0,0,0,0,0.0059,0.0059,0.0054,0.0053,0.0053,0.0023,0.0022,0.0022,0.0001,0.0001,0.0001,0.0001,-0.0052,-0.0053,-0.0055,0,0,0,0,0,0,0,0,0,0,0,0,0,0.0045,0.0059,0.0054,0.0039,0.0038,0.0023,0.0022,0.0021,0.0001,0.0001,0.0001,0.0001,-0.0051,-0.0053,-0.0055,-0.0064,0,0,-0.0061,-0.0062,0,0,0,0,0,0,0,0,0.0046,0.0045,0.0042,0.004,0.0038,0.0016,0.0004,-0.0008,0.0001,0.0015,0.0001,0.0001,-0.0031,-0.0035,-0.004,-0.0067,-0.0069,-0.0061,-0.0063,-0.0063,-0.0064,0,0,0,0,0,0,0,0.0047,0.0046,0.0041,0.0041,0.0039,0.0022,0.002,0.0002,-0.0008,0.0014,0.0012,0.0009,-0.0032,-0.0038,-0.0042,-0.007,-0.0061,-0.0063,-0.0064,-0.0065,-0.0108,-0.0108,0,0,0,0,0,0,0.0053,0.0047,0.0042,0.004,0.0042,0.0022,0.002,0.0023,-0.0007,-0.0011,0.0009,0.0008,-0.0035,-0.004,-0.0044,-0.0041,-0.0063,-0.0065,-0.0066,-0.0108,-0.0108,-0.0108,0,0,0,0,0,0,0.0054,0.0053,0.0043,0.0042,0.004,0.0022,0.0026,0.0022,0.0017,-0.001,-0.0015,0.0008,-0.0035,-0.0041,-0.0053,-0.0044,-0.0066,-0.0068,-0.0108,-0.0108,-0.0108,-0.0046,0,0,0,0,0,0,0.0054,0.0054,0.0058,0.0043,0.004,0.004,0.0026,0.0022,0.0016,0.0014,-0.0013,-0.0018,-0.0036,-0.005,-0.0055,-0.0047,-0.0069,-0.0108,-0.0108,-0.0108,-0.0048,-0.0043,-0.004,0,0,0,0,0,0.0054,0.0065,0.0058,0.0058,0.0047,0.0041,0.0038,0.0024,0.0016,0.0018,0.0001,-0.0017,-0.0054,-0.0052,-0.0058,-0.005,-0.0108,-0.0108,-0.0108,-0.0049,-0.0044,-0.004,0,0,0,0,0,0,0.0076,0.0064,0.0056,0.0064,0.0054,0.0037,0.0039,0.0027,0.0014,0.0014,-0.0014,-0.002,-0.0027,-0.005,-0.0047,-0.0064,-0.0086,-0.0087,-0.0039,-0.0034,-0.003,-0.0018,-0.0071,0,0,0,0,0,0.0081,0.0081,0.0069,0.0074,0.0073,0.0055,0.005,0.0042,0.0029,0.0023,0.0004,-0.0018,-0.0032,-0.0042,-0.0059,-0.0068,-0.0094,-0.0069,-0.0065,-0.0062,-0.0057,-0.0087,-0.0085,-0.0108,-0.0108,-0.0108,0,0,0.0092,0.0084,0.0085,0.0078,0.007,0.0073,0.0052,0.0051,0.0055,0.0019,0.0018,-0.0003,-0.0031,-0.0036,-0.0042,-0.0054,-0.0069,-0.0062,-0.0058,-0.0056,-0.0087,-0.0085,-0.0083,-0.0108,-0.0108,-0.0108,0,0,0.0113,0.0107,0.0114,0.0108,0.0099,0.0088,0.009,0.0075,0.0072,0.0066,0.0045,0.003,0.0003,-0.0011,-0.0023,-0.0011,-0.0045,-0.0019,0.001,-0.0019,-0.0017,-0.0015,-0.0042,-0.0044,-0.0019,-0.0019,-0.0019,0,0.0126,0.0135,0.0116,0.0123,0.0122,0.0098,0.011,0.0104,0.0087,0.009,0.0073,0.0043,0.0016,0.0015,0.0017,0.0,-0.0022,-0.0001,-0.0012,-0.0011,-0.0011,-0.0039,-0.0042,-0.0016,-0.0016,-0.0017,-0.0017,0,0.0152,0.0159,0.0166,0.0164,0.0159,0.0167,0.0155,0.0157,0.0145,0.0135,0.0131,0.0096,0.0078,0.0065,0.0044,0.0038,0.002,0.0001,-0.0019,-0.0004,-0.0036,-0.0039,-0.0012,-0.0013,-0.0014,-0.0014,0,0,0.0178,0.0184,0.0185,0.0196,0.0183,0.0187,0.0197,0.0201,0.022,0.0192,0.0205,0.0171,0.015,0.0135,0.0106,0.0077,0.0056,0.0042,0.004,0.0024,-0.0006,-0.0027,-0.0033,0.0037,0.0036,0.0036,-0.0027,0,0.0204,0.0234,0.0222,0.0247,0.0262,0.0246,0.0259,0.0258,0.0255,0.0262,0.0225,0.0222,0.0178,0.0173,0.0139,0.0081,0.0048,0.0075,-0.0026,-0.0029,-0.0042,-0.0037,-0.002,-0.0075,-0.0031,-0.0032,-0.0032,0,0.0229,0.0246,0.028,0.0299,0.0305,0.0312,0.0335,0.0348,0.0349,0.0344,0.033,0.0301,0.0265,0.0219,0.0129,0.0149,0.0076,0.0022,0.0018,-0.0025,-0.0057,-0.0085,-0.0084,-0.0039,-0.0039,-0.0038,-0.0038,0,0.0258,0.0285,0.0316,0.0321,0.0339,0.0353,0.0364,0.0374,0.0403,0.0401,0.0417,0.0362,0.0347,0.0249,0.0141,0.0133,0.0034,0.0006,-0.0081,-0.0084,-0.0101,-0.0104,-0.0067,-0.0067,-0.0067,-0.0067,-0.0066,0,0.0288,0.0313,0.0336,0.0354,0.0398,0.0392,0.0441,0.045,0.0472,0.052,0.0466,0.0486,0.0353,0.0284,0.0165,0.0038,0.005,-0.0074,-0.0101,-0.0079,-0.008,-0.0076,-0.0076,-0.0069,-0.0068,-0.0068,-0.0068,0,0.0313,0.0328,0.0369,0.0399,0.0413,0.0446,0.0495,0.0538,0.0551,0.0612,0.0615,0.0577,0.049,0.035,0.0195,0.0083,-0.005,-0.0102,-0.0066,-0.0088,-0.0156,-0.0152,-0.0208,-0.0209,-0.021,-0.0211,-0.0212,0,0.033,0.0355,0.0405,0.0437,0.0452,0.0503,0.0545,0.0573,0.063,0.0678,0.0716,0.0653,0.062,0.0386,0.0172,-0.0041,-0.0058,-0.016,-0.018,-0.015,-0.017,-0.0165,-0.016,-0.018,-0.0181,-0.0181,-0.0181,0,0.0363,0.038,0.0415,0.0483,0.0532,0.0599,0.0665,0.0725,0.078,0.0821,0.0873,0.0845,0.0634,0.0426,0.0137,-0.0009,-0.0128,-0.0175,-0.0152,-0.0145,-0.0129,-0.0147,-0.0142,-0.0184,-0.0184,-0.0184,-0.0184,-0.0184,0.0385,0.0418,0.0469,0.0535,0.0601,0.07,0.0771,0.0844,0.0934,0.1015,0.0985,0.0946,0.0708,0.0335,0.0095,-0.0155,-0.0156,-0.0241,-0.0238,-0.0235,-0.0218,-0.0204,-0.0271,-0.0271,-0.0271,-0.0271,-0.0271,0,0.0415,0.0459,0.0521,0.0609,0.0693,0.0724,0.0856,0.0928,0.1041,0.1084,0.1102,0.0889,0.0644,0.0383,0.0008,-0.0223,-0.0238,-0.0286,-0.0246,-0.0243,-0.0239,-0.0221,-0.0276,-0.0276,-0.0277,-0.0277,0,0,0.0433,0.0498,0.0535,0.0677,0.0747,0.0874,0.0962,0.1054,0.1113,0.1154,0.1126,0.1044,0.0723,0.046,0.0148,-0.0055,-0.0095,-0.01,-0.0076,0.001,0.0017,-0.0199,-0.0164,0,0,0,0,0]}],[{"header":{"parameterUnit":"m.s-1","parameterCategory":2,"la1":30.2991,"la2":30.254,"lo1":-89.0895,"lo2":-89.0444,"dy":0.0017,"dx":0.0017,"nx":28,"ny":28,"refTime":"2025-08-23T09:00:00:Z","depth":"4","parameterNumber":2,"parameterNumberName":"U-component_of_CURRENTS"},"data":[0,0,0,0,0,0,0,0,0,0,0,0,0,0,0,0,0,0,0,0,0,0,0,0,0,0,0,0,0,0,0,0,0,0,0,0,0,0,0,0,0,0,0,0,0,0,0,0,0,0,0,0,0,0,0,0,0,0,0.0992,0.0993,0,0.1029,0.1029,0.1029,0.1073,0.1074,0.1076,0.1077,0.1074,0.1073,0.1072,0,0,0,0,0,0,0,0,0,0,0,0,0,0.0896,0.0897,0.0992,0.0993,0.0994,0.1029,0.1029,0.1029,0.1073,0.1075,0.1076,0.1077,0.1074,0.1073,0.1072,0,0,0,0,0,0,0,0,0,0,0,0,0,0.0931,0.0898,0.0992,0.1024,0.1027,0.1029,0.1029,0.1029,0.1073,0.1075,0.1076,0.1078,0.1075,0.1073,0.1071,0.1028,0,0,0.1066,0.1066,0,0,0,0,0,0,0,0,0.0929,0.0934,0.1018,0.1021,0.1025,0.1052,0.0994,0.1028,0.1072,0.1051,0.1077,0.1079,0.1064,0.1064,0.1061,0.1028,0.1028,0.1066,0.1065,0.1064,0.1064,0,0,0,0,0,0,0,0.0927,0.0933,0.1002,0.1019,0.1023,0.1014,0.1021,0.1,0.1044,0.1053,0.1057,0.1068,0.1066,0.1063,0.1062,0.1028,0.1066,0.1065,0.1064,0.1063,0.1006,0.1006,0,0,0,0,0,0,0.0933,0.0931,0.1001,0.1004,0.0985,0.1015,0.1022,0.1038,0.1045,0.1049,0.1066,0.107,0.1065,0.1063,0.1062,0.109,0.1064,0.1063,0.1062,0.1007,0.1006,0.1005,0,0,0,0,0,0,0.0931,0.0939,0.1,0.0971,0.0979,0.1016,0.1033,0.1038,0.1064,0.1057,0.106,0.109,0.1066,0.1064,0.1076,0.1087,0.1062,0.1061,0.1007,0.1006,0.1006,0.1095,0,0,0,0,0,0,0.0928,0.0938,0.0958,0.0972,0.0981,0.1007,0.1032,0.1038,0.1068,0.1074,0.1077,0.1077,0.1067,0.1079,0.1075,0.1084,0.1059,0.1008,0.1007,0.1006,0.1092,0.1097,0.1101,0,0,0,0,0,0.0924,0.0943,0.0958,0.0968,0.1005,0.1007,0.101,0.1038,0.1068,0.1069,0.1091,0.1078,0.1069,0.1078,0.1073,0.1082,0.1008,0.1007,0.1006,0.109,0.1096,0.1101,0,0,0,0,0,0,0.0908,0.095,0.0967,0.0998,0.1006,0.1017,0.1032,0.1049,0.1067,0.1085,0.1084,0.1084,0.1094,0.1067,0.1078,0.1057,0.103,0.1028,0.1096,0.1101,0.1105,0.1113,0.1058,0,0,0,0,0,0.0914,0.0944,0.0965,0.0988,0.0999,0.1019,0.1031,0.1046,0.1062,0.1074,0.1087,0.1086,0.1076,0.1078,0.1061,0.1056,0.1053,0.105,0.1054,0.1059,0.1058,0.1061,0.1067,0.1002,0.1002,0.1002,0,0,0.0913,0.0943,0.0958,0.0988,0.1003,0.1004,0.103,0.105,0.1064,0.1067,0.1105,0.1105,0.1077,0.108,0.1079,0.1067,0.1081,0.1057,0.1062,0.1058,0.1061,0.1067,0.1073,0.1001,0.1001,0.1001,0,0,0.091,0.0953,0.0969,0.098,0.101,0.1013,0.1024,0.1051,0.1082,0.1099,0.1113,0.1126,0.1111,0.1106,0.1095,0.1103,0.1104,0.1095,0.113,0.1134,0.114,0.1146,0.1188,0.1196,0.1098,0.1099,0.1099,0,0.0908,0.0937,0.0968,0.0981,0.0991,0.1018,0.1017,0.1042,0.1075,0.1105,0.1116,0.113,0.1115,0.1122,0.1134,0.1115,0.1137,0.1124,0.1144,0.1149,0.1153,0.1194,0.1202,0.1103,0.1102,0.1102,0.1101,0,0.0905,0.0935,0.0946,0.0972,0.0973,0.0986,0.1011,0.1041,0.108,0.111,0.1152,0.1152,0.1163,0.1156,0.1152,0.1175,0.1191,0.1156,0.1144,0.1166,0.1207,0.1214,0.1109,0.1107,0.1106,0.1105,0,0,0.0889,0.0936,0.0945,0.0956,0.0977,0.0976,0.1002,0.1031,0.1077,0.1117,0.1169,0.1169,0.121,0.1198,0.1207,0.1213,0.1276,0.1213,0.1211,0.1278,0.1334,0.1256,0.1257,0.1263,0.1264,0.1265,0.1366,0,0.0882,0.0907,0.0922,0.093,0.0939,0.0965,0.0978,0.1013,0.107,0.1134,0.1168,0.1216,0.1217,0.1247,0.1258,0.1269,0.1293,0.1254,0.128,0.1281,0.1228,0.126,0.1267,0.1371,0.1373,0.1374,0.1375,0,0.0868,0.0895,0.0908,0.0925,0.093,0.0936,0.0979,0.0999,0.1086,0.1138,0.1209,0.126,0.1312,0.1292,0.1345,0.1334,0.1345,0.1344,0.1347,0.1243,0.1214,0.1329,0.1387,0.1386,0.1385,0.1384,0.1383,0,0.0841,0.0875,0.0891,0.0902,0.0925,0.0944,0.0954,0.1017,0.1056,0.1173,0.1226,0.1301,0.1358,0.1371,0.1404,0.139,0.1448,0.1416,0.136,0.1357,0.1361,0.1354,0.1436,0.1436,0.1436,0.1435,0.1435,0,0.0822,0.0835,0.0897,0.0914,0.0927,0.0942,0.0983,0.1017,0.1091,0.115,0.1248,0.1313,0.1382,0.1435,0.1434,0.1432,0.1477,0.1377,0.1369,0.14,0.1395,0.137,0.136,0.1439,0.1438,0.1437,0.1437,0,0.0775,0.0824,0.0848,0.0904,0.0919,0.0933,0.098,0.1009,0.1096,0.118,0.1223,0.1349,0.1428,0.1477,0.1517,0.1472,0.1462,0.1444,0.1518,0.1512,0.1373,0.1367,0.1403,0.1401,0.1399,0.1397,0.1396,0,0.0752,0.0766,0.0838,0.0859,0.0893,0.093,0.0938,0.1004,0.1046,0.1193,0.122,0.1356,0.1434,0.1447,0.1484,0.1492,0.1458,0.146,0.1374,0.1376,0.1366,0.1363,0.1359,0.1393,0.1393,0.1392,0.1392,0,0.0702,0.074,0.0768,0.0813,0.0847,0.0868,0.091,0.0934,0.1024,0.1121,0.1217,0.1281,0.1372,0.1415,0.1439,0.1426,0.1456,0.1441,0.1443,0.1363,0.1365,0.1356,0.1355,0.1386,0.1387,0.1387,0.1388,0,0.0667,0.0673,0.0721,0.0752,0.0794,0.0808,0.083,0.0883,0.0928,0.1093,0.1129,0.1261,0.1376,0.1383,0.1392,0.1389,0.1359,0.1298,0.1308,0.1315,0.1231,0.1218,0.1195,0,0,0,0,0,0.0629,0.0631,0.0647,0.069,0.0728,0.0753,0.0806,0.0835,0.0947,0.0985,0.1057,0.1139,0.1208,0.1266,0.1243,0.1328,0.1343,0.1294,0.1273,0.1352,0.1359,0.1264,0,0,0,0,0,0,0.0603,0.062,0.0627,0.064,0.0657,0.0683,0.0719,0.0779,0.0807,0.0935,0.0974,0.1077,0.1147,0.1224,0.1231,0.1244,0.1206,0.1366,0.1363,0.1348,0.1354,0.136,0.1265,0,0,0,0,0]},{"header":{"parameterUnit":"m.s-1","parameterCategory":2,"la1":30.2991,"la2":30.254,"lo1":-89.0895,"lo2":-89.0444,"dy":0.0017,"dx":0.0017,"nx":28,"ny":28,"refTime":"2025-08-23T09:00:00:Z","depth":"4","parameterNumber":3,"parameterNumberName":"V-component_of_CURRENTS"},"data":[0,0,0,0,0,0,0,0,0,0,0,0,0,0,0,0,0,0,0,0,0,0,0,0,0,0,0,0,0,0,0,0,0,0,0,0,0,0,0,0,0,0,0,0,0,0,0,0,0,0,0,0,0,0,0,0,0,0,0.0028,0.0028,0,0.0011,0.001,0.001,0.0005,0.0005,0.0005,0.0005,-0.0023,-0.0023,-0.0024,0,0,0,0,0,0,0,0,0,0,0,0,0,0.0035,0.0035,0.0028,0.0028,0.0028,0.0011,0.001,0.001,0.0005,0.0005,0.0005,0.0005,-0.0023,-0.0023,-0.0024,0,0,0,0,0,0,0,0,0,0,0,0,0,0.0027,0.0035,0.0028,0.0022,0.0021,0.0011,0.001,0.001,0.0005,0.0005,0.0005,0.0005,-0.0022,-0.0023,-0.0024,-0.0032,0,0,-0.0028,-0.0028,0,0,0,0,0,0,0,0,0.0027,0.0027,0.0023,0.0023,0.0022,0.0009,0.0003,-0.0005,0.0005,0.0012,0.0005,0.0005,-0.0013,-0.0015,-0.0018,-0.0033,-0.0034,-0.0028,-0.0029,-0.0029,-0.0029,0,0,0,0,0,0,0,0.0028,0.0027,0.0022,0.0023,0.0022,0.0013,0.0012,0.0001,-0.0,0.0011,0.001,0.0007,-0.0014,-0.0016,-0.0018,-0.0035,-0.0028,-0.0029,-0.003,-0.003,-0.0068,-0.0068,0,0,0,0,0,0,0.003,0.0028,0.0022,0.0021,0.0024,0.0013,0.0012,0.0014,-0.0,-0.0002,0.0007,0.0007,-0.0015,-0.0017,-0.0019,-0.0024,-0.0029,-0.003,-0.0031,-0.0068,-0.0068,-0.0068,0,0,0,0,0,0,0.003,0.003,0.0023,0.0023,0.0022,0.0013,0.0015,0.0013,0.0011,-0.0003,-0.0005,0.0007,-0.0015,-0.0018,-0.0025,-0.0025,-0.0031,-0.0032,-0.0067,-0.0068,-0.0068,-0.0036,0,0,0,0,0,0,0.003,0.003,0.0032,0.0024,0.0022,0.002,0.0015,0.0013,0.0009,0.0009,-0.0004,-0.0007,-0.0015,-0.0023,-0.0026,-0.0027,-0.0032,-0.0067,-0.0067,-0.0068,-0.0036,-0.0035,-0.0034,0,0,0,0,0,0.0031,0.0036,0.0033,0.0032,0.0025,0.002,0.0019,0.0012,0.0009,0.001,0.0002,-0.0006,-0.003,-0.0024,-0.0027,-0.0028,-0.0066,-0.0067,-0.0068,-0.0037,-0.0035,-0.0034,0,0,0,0,0,0,0.0044,0.0036,0.0032,0.0035,0.0029,0.0019,0.002,0.0013,0.0008,0.0008,-0.0006,-0.0009,-0.0017,-0.0029,-0.0023,-0.0043,-0.0052,-0.0053,-0.0027,-0.0026,-0.0025,-0.0023,-0.0033,0,0,0,0,0,0.0047,0.0046,0.0038,0.004,0.0039,0.0029,0.0026,0.0022,0.0014,0.0012,0.0002,-0.0012,-0.0024,-0.0029,-0.0042,-0.0049,-0.0072,-0.0055,-0.0054,-0.0052,-0.0055,-0.0094,-0.0097,-0.0071,-0.0071,-0.0071,0,0,0.0052,0.0047,0.0047,0.0042,0.0037,0.0038,0.0028,0.0026,0.0027,0.001,0.0009,-0.0007,-0.0026,-0.0033,-0.0039,-0.0042,-0.007,-0.0053,-0.0052,-0.0055,-0.0095,-0.0098,-0.01,-0.0071,-0.0071,-0.0071,0,0,0.0063,0.0059,0.0063,0.006,0.0054,0.0046,0.0047,0.0038,0.0036,0.0031,0.0017,0.0002,-0.0014,-0.0028,-0.0037,-0.0039,-0.0063,-0.0045,-0.0034,-0.0073,-0.0075,-0.0077,-0.01,-0.0105,-0.0043,-0.0043,-0.0043,0,0.0069,0.0075,0.0064,0.0068,0.0069,0.0052,0.0059,0.0053,0.0043,0.0041,0.0035,0.0002,-0.0013,-0.0027,-0.0027,-0.0036,-0.0058,-0.0034,-0.007,-0.0073,-0.0076,-0.0099,-0.0105,-0.0042,-0.0042,-0.0042,-0.0042,0,0.0084,0.009,0.0093,0.0092,0.009,0.0094,0.0084,0.0082,0.0073,0.0063,0.0047,0.0022,0.0003,-0.0007,-0.0016,-0.0043,-0.0051,-0.0064,-0.0071,-0.0077,-0.0101,-0.0107,-0.0039,-0.004,-0.004,-0.0041,0,0,0.0094,0.0102,0.0104,0.0113,0.0105,0.0108,0.0107,0.0103,0.0107,0.0083,0.0078,0.0048,0.003,0.0017,-0.0002,-0.0037,-0.0072,-0.0056,-0.0059,-0.0072,-0.0148,-0.0141,-0.0147,-0.0092,-0.0094,-0.0095,-0.0152,0,0.0109,0.013,0.0125,0.0143,0.0154,0.0142,0.0144,0.0136,0.0126,0.0117,0.008,0.0069,0.0041,0.0036,-0.0005,-0.0057,-0.0089,-0.0055,-0.0146,-0.0149,-0.0137,-0.0155,-0.0098,-0.0157,-0.0159,-0.016,-0.0161,0,0.0123,0.0137,0.0162,0.0177,0.018,0.0186,0.0191,0.0194,0.0173,0.0163,0.0135,0.0107,0.006,0.0037,-0.0061,-0.0038,-0.0089,-0.0134,-0.0137,-0.0148,-0.0154,-0.0155,-0.0173,-0.0172,-0.0171,-0.017,-0.0169,0,0.0139,0.0161,0.0185,0.0191,0.0202,0.0213,0.0218,0.0209,0.0224,0.0197,0.0195,0.0129,0.0107,0.0018,-0.0069,-0.0067,-0.0182,-0.019,-0.0232,-0.0231,-0.0233,-0.023,-0.0262,-0.0262,-0.0262,-0.0262,-0.0262,0,0.0156,0.0175,0.0199,0.0214,0.0246,0.0243,0.0275,0.0267,0.0268,0.0284,0.0225,0.0214,0.0099,0.0025,-0.0065,-0.0168,-0.018,-0.0235,-0.0251,-0.0217,-0.0212,-0.0237,-0.0234,-0.0264,-0.0264,-0.0263,-0.0263,0,0.017,0.0184,0.0217,0.0243,0.0257,0.0282,0.0325,0.0349,0.0336,0.0353,0.0348,0.0278,0.0177,0.006,-0.0079,-0.0147,-0.0256,-0.0286,-0.0233,-0.0244,-0.0278,-0.0272,-0.0339,-0.034,-0.034,-0.034,-0.0341,0,0.0182,0.0202,0.0246,0.0275,0.0292,0.0336,0.0371,0.0384,0.0411,0.0393,0.0399,0.0317,0.0255,0.0066,-0.0067,-0.0242,-0.0263,-0.0313,-0.0307,-0.028,-0.0289,-0.0282,-0.0276,-0.0341,-0.0341,-0.0341,-0.0341,0,0.0205,0.022,0.0247,0.0305,0.0352,0.041,0.0456,0.048,0.0494,0.0484,0.0448,0.0349,0.0237,0.0081,-0.0053,-0.018,-0.0283,-0.0316,-0.0316,-0.0312,-0.0283,-0.029,-0.0283,-0.0342,-0.0342,-0.0342,-0.0342,0,0.0221,0.0244,0.0281,0.0334,0.0397,0.0459,0.0484,0.0513,0.0538,0.0514,0.0502,0.0371,0.0299,0.0113,-0.0016,-0.0138,-0.0167,-0.0201,-0.0207,-0.0208,-0.0157,-0.01,-0.0122,0,0,0,0,0,0.0234,0.0262,0.031,0.0369,0.0433,0.047,0.0531,0.0551,0.0564,0.0551,0.053,0.0424,0.0236,0.0148,0.0028,-0.0031,-0.0197,-0.0175,-0.024,-0.0348,-0.0346,-0.0309,0,0,0,0,0,0,0.0243,0.0282,0.0308,0.0392,0.0438,0.0513,0.0553,0.0563,0.0554,0.0543,0.0444,0.0397,0.021,0.0304,0.0025,-0.0014,-0.0069,-0.0265,-0.0268,-0.0348,-0.0347,-0.0346,-0.0307,0,0,0,0,0]}]]